Probability
0 0 0 0 0 0 0 0 0 0 0 0 0 1 4 7 9 11 14 15 14 13 12 12 14 16 16 15 12 11 11 11 9 6 5 4 4 4 6 7 8 6 4 3
0 0 0 0 0 0 0 0 0 0 0 0 0 2 5 8 9 12 14 15 15 16 15 14 13 14 16 16 14 13 13 11 9 6 6 5 5 6 8 9 9 8 5 3
0 0 0 0 0 0 0 0 0 0 0 0 0 3 6 8 8 11 13 14 16 18 17 14 12 13 15 16 16 16 14 12 9 7 7 7 7 8 9 9 10 8 5 3
0 0 0 0 0 0 0 0 0 0 0 0 0 2 5 6 7 8 10 13 14 15 15 13 11 12 14 16 17 16 14 12 11 9 9 10 9 8 8 8 9 8 6 5
0 0 0 0 0 0 0 0 0 0 0 1 1 2 4 5 6 6 8 11 12 11 12 11 10 11 14 16 16 14 12 12 11 10 10 11 10 9 8 8 9 9 8 8
0 0 0 0 0 0 0 0 0 0 2 3 3 3 3 4 6 6 7 9 10 11 11 9 9 11 14 16 14 12 11 11 10 10 10 11 10 10 10 10 10 9 8 8
0 0 0 0 0 0 0 0 0 1 3 4 4 2 2 4 6 6 7 8 10 10 10 9 9 11 14 14 13 12 11 10 9 9 9 9 10 10 11 11 11 10 8 8
0 0 0 0 0 0 0 0 1 2 3 3 3 3 4 5 6 6 7 8 9 9 9 9 10 11 12 11 12 13 13 11 10 9 7 7 8 8 9 10 11 10 9 9
0 0 0 0 0 0 0 0 1 2 2 2 3 5 7 6 5 5 6 6 6 7 8 9 10 9 9 9 11 13 13 11 8 7 6 5 5 5 6 7 7 8 8 8
0 0 0 0 0 0 0 0 1 1 2 3 5 7 8 7 5 4 3 2 3 6 8 9 9 8 8 8 10 11 11 8 6 5 5 5 4 4 4 4 4 5 6 7
0 0 0 0 0 0 0 0 0 1 2 4 7 9 8 6 5 3 2 1 2 5 7 8 8 8 8 8 10 10 8 6 4 3 4 4 5 4 4 3 3 4 5 6
0 0 0 0 0 0 0 0 0 2 3 5 8 8 6 5 3 2 1 1 2 4 5 7 7 8 7 8 9 8 6 4 3 3 3 3 4 4 3 3 2 2 3 3
0 0 0 1 1 0 1 2 3 4 5 7 7 6 4 2 2 2 1 1 2 3 4 6 7 7 6 5 5 5 4 3 3 3 3 3 3 3 3 2 1 1 1 1
0 0 0 1 1 1 2 4 5 6 7 7 6 4 3 1 2 3 3 3 3 3 3 4 6 5 4 3 3 4 5 5 5 4 4 3 3 3 3 3 2 1 0 0
0 0 0 1 1 0 1 3 4 5 6 5 4 3 3 3 3 4 4 3 2 1 1 1 2 2 3 3 3 4 6 7 7 6 5 4 4 4 4 3 2 1 0 0
0 0 0 0 0 0 0 1 1 2 3 3 3 3 3 3 3 3 3 2 1 0 0 0 0 1 2 3 4 5 6 7 7 6 5 6 5 5 5 4 1 0 0 0
0 0 0 0 0 0 0 0 0 0 1 1 2 3 3 3 2 1 1 1 0 0 0 0 0 0 1 3 4 6 6 6 6 5 4 4 5 5 6 5 2 0 0 0
0 0 0 0 0 0 0 0 0 0 0 0 1 2 2 1 1 0 0 0 0 0 0 0 0 0 1 2 4 5 6 6 5 4 2 1 2 3 4 4 2 0 0 0
0 0 0 0 0 0 0 0 0 0 0 0 0 1 1 0 0 0 0 0 0 0 0 0 0 0 1 3 3 4 3 3 3 2 0 0 0 1 1 1 1 1 0 0
0 0 0 0 0 0 0 0 0 0 0 0 0 0 0 0 0 0 0 0 0 0 0 0 0 0 1 2 2 2 1 1 1 0 0 0 0 0 0 0 0 1 0 0
0 0 0 0 0 0 0 0 0 0 0 0 0 0 0 0 0 0 0 0 0 0 0 0 0 0 1 1 1 1 0 0 0 0 0 0 0 0 0 0 0 0 0 0
0 0 0 0 0 0 0 0 0 0 0 0 0 0 0 0 0 0 0 0 0 0 0 0 0 0 0 0 0 0 0 0 0 0 0 0 0 0 0 0 0 0 0 0
0 0 0 0 0 0 0 0 0 0 0 0 0 0 0 0 0 0 0 0 0 0 0 0 0 0 0 0 1 1 1 0 0 0 0 0 0 0 0 0 0 0 0 0
0 0 0 0 0 0 0 0 0 0 0 0 0 0 0 0 0 0 0 0 0 0 0 0 0 0 0 1 2 3 2 1 0 0 0 0 0 0 0 0 0 0 0 0
0 0 0 0 0 0 0 0 0 0 0 0 0 0 0 0 0 0 0 0 0 0 0 0 0 0 0 1 2 3 3 2 1 0 0 0 0 0 0 0 0 0 0 0
0 0 0 0 0 0 0 0 0 0 0 0 0 0 0 0 0 0 0 0 0 0 0 0 0 0 0 0 1 1 2 2 1 0 0 0 0 0 0 0 0 0 0 0
0 0 0 0 0 0 0 0 0 0 0 0 0 0 0 0 0 0 0 0 0 0 0 0 0 0 0 0 0 0 1 2 2 1 0 0 0 0 0 0 0 0 0 0
Wind_Speed
3 3 2 2 2 3 4 6 7 7 6 6 4 3 3 1 0 1 1 1 1 2 2 3 3 2 2 2 2 2 2 2 2 2 1 1 1 1 1 1 2 1 1 1
1 1 1 1 2 3 3 3 3 2 5 4 1 0 0 1 1 1 1 1 0 0 1 2 3 3 2 2 2 2 2 2 2 1 1 1 1 1 1 1 1 1 1 1
2 2 2 3 4 4 3 3 5 6 6 1 0 2 3 3 2 2 2 1 1 2 2 2 2 3 4 3 2 2 2 2 1 1 1 1 1 0 1 1 1 1 1 1
2 2 4 8 3 3 4 3 3 3 2 3 3 3 2 2 2 2 2 1 1 1 1 1 1 2 2 3 3 3 2 1 1 1 1 1 1 1 1 1 1 1 2 2
4 3 5 5 2 3 4 4 3 3 2 1 2 3 2 2 2 3 2 1 1 1 0 0 1 1 2 2 2 2 2 2 2 2 2 1 1 2 1 1 1 2 2 2
4 3 6 7 3 1 3 4 3 4 4 3 3 1 4 3 1 1 0 0 0 1 1 1 0 1 2 2 1 2 2 2 2 2 2 2 2 2 1 1 2 2 2 2
4 4 7 6 2 3 3 7 4 5 5 5 5 5 4 1 1 1 1 1 1 1 1 1 1 2 2 2 2 3 2 1 1 1 1 1 1 1 1 1 1 1 2 2
4 3 8 3 3 5 7 3 2 3 4 5 4 2 1 1 1 1 1 1 1 1 0 0 1 2 2 2 2 1 1 1 1 1 1 0 1 1 1 1 1 2 2 2
7 8 5 3 4 4 2 2 3 4 4 5 4 3 2 2 1 1 1 1 1 1 0 1 1 2 2 2 1 1 1 1 1 0 0 0 1 0 1 1 1 1 1 2
3 6 5 5 4 3 3 4 4 4 4 4 4 4 3 2 1 1 1 1 1 1 1 1 2 1 2 1 2 1 1 1 1 1 0 0 0 0 1 1 1 1 1 2
4 5 5 5 4 4 4 2 2 2 3 5 5 4 4 3 3 2 2 1 1 2 2 3 2 2 2 2 2 2 1 1 1 1 1 1 1 1 2 3 3 3 2 2
7 7 5 7 5 4 3 4 3 3 3 3 5 5 4 4 3 3 2 1 1 1 2 3 2 2 2 2 3 3 2 1 1 1 1 1 1 2 3 2 2 3 4 3
6 5 5 6 5 4 4 4 4 4 4 3 3 4 4 4 3 3 3 3 3 3 3 3 2 2 2 2 3 3 3 3 2 2 2 1 1 1 2 3 3 2 1 1
5 3 4 5 5 4 3 3 2 2 2 3 3 3 3 3 2 3 4 4 3 2 3 3 3 3 3 3 3 3 3 3 2 2 2 2 2 2 1 1 1 2 2 2
4 4 5 4 3 2 2 1 1 2 2 2 2 3 4 4 4 4 4 2 2 2 3 3 3 4 3 3 3 3 3 2 2 2 1 1 1 1 1 1 1 1 1 2
3 2 2 2 3 3 2 2 3 4 3 3 3 3 3 3 3 3 3 2 3 4 4 4 4 4 3 3 3 3 2 3 2 2 1 1 1 1 1 1 1 1 1 1
3 3 2 3 4 3 3 4 4 4 3 3 4 3 2 2 2 3 3 3 4 4 4 4 5 4 3 4 4 3 2 2 2 2 2 2 2 2 2 1 1 1 1 1
5 5 5 5 5 4 3 3 3 4 4 4 2 2 2 3 4 5 4 3 2 3 4 5 4 3 4 4 3 3 3 3 2 2 2 2 2 2 2 1 1 1 1 0
4 4 3 3 3 3 3 3 4 4 3 2 2 3 3 4 4 4 3 2 3 5 5 4 4 4 3 4 3 3 3 3 2 2 2 2 2 2 2 2 2 1 1 0
2 3 2 2 2 1 2 2 1 1 1 2 2 2 2 3 3 2 2 3 4 4 4 3 3 3 3 3 3 3 3 3 3 2 2 2 2 2 2 2 2 1 1 1
2 2 1 1 1 1 0 1 2 2 1 2 3 4 4 3 2 2 2 3 4 4 3 3 2 2 2 2 2 3 3 3 3 2 2 2 2 2 2 2 2 1 1 1
2 1 1 1 2 2 1 1 1 1 1 1 1 1 1 1 2 2 3 4 4 3 2 2 2 3 3 3 3 3 3 3 2 2 2 2 2 2 2 2 2 2 1 1
2 2 2 1 1 2 2 2 1 1 1 1 1 1 1 2 2 2 3 3 2 2 2 2 2 3 3 2 2 3 3 3 3 2 2 2 2 2 2 2 2 2 1 1
2 2 2 2 3 3 3 2 2 1 1 1 0 1 1 1 1 2 2 2 1 2 1 2 3 3 2 2 2 2 3 3 3 3 2 2 2 2 2 2 2 2 1 1
2 2 2 2 2 1 1 1 2 2 2 1 2 2 1 1 1 2 1 1 1 1 1 1 2 2 2 2 2 2 2 3 3 3 2 2 2 2 2 2 2 1 1 1
2 1 0 0 0 0 0 1 1 1 1 1 2 2 2 1 1 1 1 1 1 1 0 0 0 1 1 1 2 2 2 2 2 2 2 2 2 2 2 2 2 2 2 1
2 1 1 2 2 1 0 0 0 1 0 0 1 2 2 2 1 1 1 1 1 0 0 0 0 0 0 1 1 1 1 1 1 1 2 2 2 2 2 2 2 2 2 2
Wind_Direction
224 226 178 191 211 192 187 189 190 225 223 242 238 230 247 276 5 94 99 126 176 206 211 195 191 200 203 199 186 177 173 200 226 234 223 211 204 211 219 222 233 232 247 270
297 282 189 232 242 207 211 200 215 229 249 260 250 146 251 228 182 175 204 202 192 198 214 209 196 191 193 188 185 168 176 208 229 224 195 224 227 221 231 242 247 228 243 260
243 297 48 272 236 204 202 206 181 208 238 227 267 221 218 215 206 210 225 212 198 220 221 217 205 190 187 188 168 161 173 188 194 200 215 251 258 324 269 264 258 257 255 252
138 89 221 241 246 193 188 213 202 217 236 208 219 232 229 204 201 221 232 214 230 292 332 308 202 175 162 153 156 164 177 200 202 202 230 246 262 253 260 285 268 249 256 248
129 187 261 287 248 178 182 243 212 200 212 191 30 46 327 255 216 214 219 225 223 198 202 56 53 115 132 144 157 164 199 216 217 209 223 240 261 273 257 247 278 279 270 256
133 170 229 245 256 199 130 265 228 187 184 173 100 96 265 264 247 248 243 110 89 78 74 65 27 113 138 156 163 203 221 230 227 210 213 235 252 268 259 232 252 268 283 270
161 209 255 252 259 110 167 243 229 193 194 181 192 212 231 233 239 236 219 183 130 107 113 191 165 151 154 170 217 232 216 192 220 225 209 218 239 267 274 262 270 270 279 287
149 195 253 255 134 184 221 242 182 192 196 189 204 208 205 193 199 187 169 163 142 121 318 270 164 164 168 220 241 211 172 167 198 219 231 211 220 276 255 215 243 270 289 306
188 213 245 254 234 245 208 212 218 199 204 178 186 212 214 205 201 218 201 184 179 160 312 320 251 183 188 227 212 172 155 191 198 100 42 59 152 287 317 292 253 267 272 283
259 271 278 283 285 285 255 229 234 217 199 185 196 201 203 203 206 234 250 216 185 160 181 256 264 237 212 206 169 162 172 179 145 130 89 15 5 229 248 266 266 268 264 272
260 279 307 291 269 269 280 259 234 243 223 200 186 203 207 210 215 224 240 220 186 196 213 238 241 233 223 189 160 166 175 166 169 178 188 288 298 256 237 238 224 222 235 233
229 230 220 259 269 265 253 251 231 226 239 222 198 198 202 207 208 210 223 223 218 233 236 247 232 228 226 189 168 168 185 189 193 211 219 239 277 321 320 282 261 236 231 228
238 248 241 265 266 250 235 235 230 222 214 224 225 205 198 204 206 208 220 217 219 232 243 244 230 231 233 200 180 182 193 202 207 212 211 226 236 259 311 340 355 0 309 255
242 238 262 259 255 252 239 230 224 247 242 213 208 199 186 193 200 212 227 231 229 236 251 245 232 236 231 201 189 197 202 205 205 212 216 223 234 250 251 257 311 339 334 314
254 243 245 264 272 273 261 225 215 245 243 239 208 190 187 195 207 223 235 230 223 245 249 238 240 249 234 201 192 197 199 206 210 210 214 225 228 237 251 255 254 291 327 330
268 277 259 256 248 257 264 247 229 236 229 221 216 214 211 209 214 223 230 207 209 239 244 235 240 246 230 203 196 199 206 215 196 188 197 203 214 222 226 231 245 253 268 276
251 267 269 267 260 261 258 251 233 232 236 228 225 216 194 194 227 244 250 240 234 242 242 238 241 240 223 206 195 194 195 199 195 183 198 204 210 219 221 224 235 249 260 245
246 245 234 225 228 239 254 249 231 221 227 230 226 209 205 209 223 234 239 242 257 267 260 248 240 231 221 210 195 188 183 186 195 203 202 205 215 218 217 221 228 241 286 290
264 260 259 252 240 223 228 234 230 225 222 191 190 215 228 229 231 233 221 212 233 251 260 249 235 222 220 215 197 181 179 181 189 195 193 196 207 217 212 219 226 221 231 254
279 278 275 284 276 248 240 238 211 215 206 173 177 205 231 240 235 223 210 226 242 249 252 244 227 221 221 215 196 178 178 183 192 195 193 200 211 224 223 224 227 215 207 213
296 299 302 328 348 343 227 160 146 162 187 181 186 204 219 232 223 200 205 252 269 262 252 235 221 221 216 205 192 181 181 185 193 200 207 214 212 216 223 226 225 212 209 221
339 9 28 46 59 34 27 63 104 124 134 170 209 208 204 228 226 230 234 238 259 268 254 226 220 220 215 197 185 186 187 185 189 193 200 210 212 213 219 221 214 207 204 207
17 37 41 50 63 52 40 40 40 80 134 171 178 187 218 234 219 211 259 264 251 252 242 227 227 223 218 191 188 189 186 185 187 194 204 207 209 213 215 217 211 200 199 205
39 44 34 40 59 63 46 14 8 3 6 1 317 241 212 223 271 253 250 269 256 242 238 239 233 228 199 185 188 191 190 189 190 198 202 201 200 199 202 205 209 203 189 186
20 49 58 59 57 37 9 26 24 11 20 21 353 335 296 218 228 260 260 265 266 256 267 262 243 212 182 183 192 200 202 197 193 192 197 200 203 201 201 197 194 187 180 179
351 1 353 298 216 225 80 87 69 351 16 7 350 345 344 331 313 318 315 306 304 272 261 275 219 183 175 189 198 205 211 208 196 195 198 202 202 198 190 186 183 178 182 178
3 15 25 14 4 12 62 106 157 276 256 215 331 331 336 343 349 346 336 332 336 354 1 337 311 139 178 209 207 209 211 205 206 210 208 198 187 190 193 182 172 168 171 163